User: anonymous   Login
Location: Unspecified
(0.0000°N, 0.0000°E)
Time: 13:54:41
(UTC+01:00)
Language:

Iridium 75 - Orbit

View from above orbital plane
View from above orbital plane
View from above satellite
View from above satellite

Ground track
Ground track

The orbit data is extracted from the following two-line orbital elements,

1 25346U 98032E   16040.61063160  .00000068  00000-0  17231-4 0  9998
2 25346  86.3930  70.4530 0002220  93.9225  19.4362 14.34217880928929
Epoch (UTC): 09 February 2016 14:39:18
Eccentricity: 0.0002220
inclination: 86.3930°
perigee height: 776 km
apogee height: 779 km
right ascension of ascending node: 70.4530°
argument of perigee: 93.9225°
revolutions per day: 14.34217880
mean anomaly at epoch: 19.4362°
orbit number at epoch: 92892

The dashed part of the orbit path shows where the satellite is in the earth's shadow,  

DLR